EW3715 Weather Reports


Display with metric or nautical units.
time (UTC)temp
F
wind
direction
speed
MPH
gust
MPH
rain 1hr
in
rain 24hr
in
rain mn
in
humidity
%
barometer
mb
20190323151205 44 270 10.0 12.0 0.00 0.00 0.00 85 1016.2
20190323145706 43 270 11.0 12.0 0.00 0.00 0.00 85 1016.1
20190323144705 43 293 10.0 15.0 0.00 0.00 0.00 86 1015.9
20190323144205 43 270 9.0 15.0 0.00 0.00 0.00 86 1016.2
20190323143705 43 270 11.0 15.0 0.00 0.00 0.00 86 1016.2
20190323143205 43 270 12.0 15.0 0.00 0.00 0.00 87 1015.8
20190323142205 42 270 10.0 13.0 0.00 0.00 0.00 87 1015.6
20190323141206 42 270 10.0 12.0 0.00 0.00 0.00 87 1015.9
20190323140705 42 270 8.0 11.0 0.00 0.00 0.00 87 1015.7
20190323135705 42 270 9.0 11.0 0.00 0.00 0.00 87 1015.5
20190323134705 42 270 8.0 11.0 0.00 0.00 0.00 86 1015.7
20190323134205 42 270 9.0 11.0 0.00 0.00 0.00 86 1015.7
20190323131705 42 270 8.0 11.0 0.00 0.00 0.00 86 1015.6
20190323131205 42 293 8.0 11.0 0.00 0.00 0.00 86 1015.6
20190323130706 42 270 9.0 11.0 0.00 0.00 0.00 86 1015.8
20190323125705 42 270 8.0 10.0 0.00 0.00 0.00 86 1015.8
20190323125206 42 270 8.0 10.0 0.00 0.00 0.00 86 1015.4
20190323124705 41 270 8.0 10.0 0.00 0.00 0.00 85 1015.4
20190323123205 42 270 8.0 11.0 0.00 0.00 0.00 85 1015.5
20190323122205 42 270 9.0 11.0 0.00 0.00 0.00 84 1015.4
20190323121206 43 270 8.0 11.0 0.00 0.00 0.00 84 1015.3
20190323115705 42 270 9.0 10.0 0.00 0.00 0.00 84 1015.0
20190323114705 42 293 8.0 8.0 0.00 0.00 0.00 84 1015.1
20190323113705 42 293 7.0 8.0 0.00 0.00 0.00 83 1015.1
20190323112205 42 270 7.0 10.0 0.00 0.00 0.00 81 1014.9
20190323111706 43 270 8.0 10.0 0.00 0.00 0.00 80 1014.8
20190323111205 43 270 8.0 10.0 0.00 0.00 0.00 79 1014.8
20190323110205 44 270 8.0 10.0 0.00 0.00 0.00 79 1014.7
20190323104205 44 270 5.0 8.0 0.00 0.00 0.00 78 1015.1
20190323103704 44 270 6.0 8.0 0.00 0.00 0.00 78 1015.0
20190323102705 44 270 6.0 8.0 0.00 0.00 0.00 78 1015.0
20190323101705 45 270 7.0 11.0 0.00 0.00 0.00 77 1014.8
20190323101206 45 270 7.0 11.0 0.00 0.00 0.00 77 1014.8
20190323094705 45 293 8.0 10.0 0.00 0.00 0.00 79 1014.5
20190323093706 45 293 7.0 9.0 0.00 0.00 0.00 79 1014.4
20190323093205 45 315 7.0 11.0 0.00 0.00 0.00 80 1014.7
20190323092705 45 293 7.0 11.0 0.00 0.00 0.00 79 1014.6
20190323091706 45 293 8.0 10.0 0.00 0.00 0.00 80 1014.4
20190323090705 44 293 8.0 8.0 0.00 0.00 0.00 80 1014.6
20190323090205 45 270 6.0 8.0 0.00 0.00 0.00 79 1014.7
20190323085705 45 270 4.0 8.0 0.00 0.00 0.00 79 1014.6
20190323084705 45 293 7.0 8.0 0.00 0.00 0.00 79 1014.5
20190323083705 45 293 6.0 8.0 0.00 0.00 0.00 78 1014.5
20190323083205 45 270 5.0 10.0 0.00 0.00 0.00 78 1014.4
20190323082206 46 270 6.0 11.0 0.00 0.00 0.00 78 1014.4
20190323081705 46 293 8.0 11.0 0.00 0.00 0.00 78 1014.4
20190323081205 46 293 8.0 11.0 0.00 0.00 0.00 78 1014.4
20190323075205 46 293 10.0 9.0 0.00 0.00 0.00 79 1014.1
20190323074705 46 293 6.0 9.0 0.00 0.00 0.00 79 1014.0
20190323072705 46 293 4.0 8.0 0.00 0.00 0.00 79 1014.0
20190323072205 46 293 5.0 9.0 0.00 0.00 0.00 79 1013.8
20190323065705 47 293 11.0 15.0 0.00 0.00 0.00 77 1013.7
20190323063705 47 270 11.0 11.0 0.00 0.00 0.00 75 1013.5
20190323062705 47 270 5.0 8.0 0.00 0.00 0.00 75 1013.1
20190323061205 48 270 5.0 9.0 0.00 0.00 0.00 74 1013.0
20190323055206 49 270 8.0 10.0 0.00 0.00 0.00 72 1012.8
20190323054705 49 293 7.0 10.0 0.00 0.00 0.00 71 1012.8
20190323054205 49 293 8.0 10.0 0.00 0.00 0.00 71 1013.1
20190323053705 49 270 8.0 10.0 0.00 0.00 0.00 71 1012.9
20190323051705 48 293 8.0 9.0 0.00 0.00 0.00 72 1012.9
20190323051205 49 293 8.0 8.0 0.00 0.00 0.00 71 1013.1
20190323045705 49 270 7.0 8.0 0.00 0.00 0.00 71 1012.8
20190323044705 49 315 4.0 8.0 0.00 0.00 0.00 71 1012.6
20190323044205 49 270 5.0 8.0 0.00 0.00 0.00 71 1012.6
20190323043705 49 293 7.0 8.0 0.00 0.00 0.00 71 1012.6
20190323042705 49 270 6.0 9.0 0.00 0.00 0.00 70 1012.3
20190323042205 49 270 6.0 9.0 0.00 0.00 0.00 70 1012.6
20190323041705 49 270 6.0 9.0 0.00 0.00 0.00 70 1012.7
20190323035204 50 270 5.0 9.0 0.00 0.00 0.00 68 1012.4
20190323034705 50 270 6.0 9.0 0.00 0.00 0.00 67 1012.1
20190323033705 50 270 7.0 10.0 0.00 0.00 0.00 66 1012.3
20190323032705 51 293 4.0 10.0 0.00 0.00 0.00 65 1012.1
20190323031206 51 270 6.0 12.0 0.00 0.00 0.00 64 1012.0
20190323030705 51 270 8.0 10.0 0.00 0.00 0.00 63 1012.0
20190323030205 52 315 8.0 11.0 0.00 0.00 0.00 63 1011.7
20190323025705 52 315 7.0 11.0 0.00 0.00 0.00 62 1011.7
20190323025205 52 270 8.0 11.0 0.00 0.00 0.00 62 1011.8
20190323024705 52 270 7.0 13.0 0.00 0.00 0.00 62 1011.9
20190323023705 52 270 8.0 17.0 0.00 0.00 0.00 61 1011.8
20190323023205 52 270 11.0 17.0 0.00 0.00 0.00 62 1011.7
20190323022205 53 270 9.0 22.0 0.00 0.00 0.00 61 1012.0
20190323021706 53 293 10.0 23.0 0.00 0.00 0.00 61 1011.9
20190323021205 53 293 19.0 23.0 0.00 0.00 0.00 61 1012.0
20190323015705 54 270 15.0 23.0 0.00 0.00 0.00 59 1012.0
20190323015205 54 270 12.0 23.0 0.00 0.00 0.00 59 1011.8
20190323014705 54 270 17.0 23.0 0.00 0.00 0.00 58 1012.0
20190323013705 55 315 18.0 20.0 0.00 0.00 0.00 58 1011.6
20190323013206 55 270 15.0 20.0 0.00 0.00 0.00 57 1011.8
20190323012705 56 315 14.0 20.0 0.00 0.00 0.00 56 1011.4
20190323011706 56 270 14.0 22.0 0.00 0.00 0.00 56 1011.0
20190323011205 56 315 15.0 23.0 0.00 0.00 0.00 56 1010.9
20190323005705 57 270 18.0 23.0 0.00 0.00 0.00 53 1010.7
20190323005204 57 315 16.0 23.0 0.00 0.00 0.00 52 1010.5
20190323004205 58 315 17.0 19.0 0.00 0.00 0.00 52 1010.2
20190323002705 59 315 15.0 21.0 0.00 0.00 0.00 48 1009.9
20190323001205 59 270 16.0 20.0 0.00 0.00 0.00 48 1009.9
20190323000706 60 270 14.0 23.0 0.00 0.00 0.00 46 1009.9
20190322235705 60 270 12.0 23.0 0.00 0.00 0.00 44 1009.7
20190322234205 60 270 16.0 21.0 0.00 0.00 0.00 44 1009.7
20190322231205 61 225 16.0 23.0 0.00 0.00 0.00 42 1009.5
20190322230705 62 270 19.0 22.0 0.00 0.00 0.00 42 1009.3
20190322230206 62 248 16.0 24.0 0.00 0.00 0.00 42 1009.4
20190322225705 62 248 17.0 24.0 0.00 0.00 0.00 43 1009.3
20190322225206 62 270 17.0 21.0 0.00 0.00 0.00 43 1009.5
20190322224206 63 270 16.0 25.0 0.00 0.00 0.00 41 1009.3
20190322223705 63 248 20.0 25.0 0.00 0.00 0.00 41 1009.3
20190322222705 64 270 15.0 23.0 0.00 0.00 0.00 41 1009.2
20190322222205 64 293 17.0 23.0 0.00 0.00 0.00 41 1009.3
20190322221705 64 270 17.0 23.0 0.00 0.00 0.00 41 1009.2
20190322221205 63 315 17.0 22.0 0.00 0.00 0.00 40 1009.3
20190322215706 63 270 16.0 20.0 0.00 0.00 0.00 41 1009.1
20190322214705 63 270 14.0 21.0 0.00 0.00 0.00 41 1009.0
20190322213705 63 270 13.0 21.0 0.00 0.00 0.00 38 1009.1
20190322212705 63 270 10.0 16.0 0.00 0.00 0.00 38 1009.1
20190322211705 63 270 8.0 16.0 0.00 0.00 0.00 42 1009.2
20190322210706 62 293 11.0 13.0 0.00 0.00 0.00 42 1009.0
20190322210205 62 293 8.0 15.0 0.00 0.00 0.00 43 1009.1
20190322203705 61 293 14.0 15.0 0.00 0.00 0.00 44 1009.1
20190322203205 61 293 9.0 15.0 0.00 0.00 0.00 44 1009.3
20190322200704 60 270 12.0 18.0 0.00 0.00 0.00 44 1009.4
20190322200205 60 293 11.0 17.0 0.00 0.00 0.00 45 1009.5
20190322195205 59 270 10.0 17.0 0.00 0.00 0.00 43 1009.7
20190322194705 59 270 12.0 17.0 0.00 0.00 0.00 44 1009.7
20190322193705 58 270 15.0 16.0 0.00 0.00 0.00 46 1009.8
20190322193205 58 248 11.0 17.0 0.00 0.00 0.00 47 1009.8
20190322192705 58 270 12.0 17.0 0.00 0.00 0.00 47 1009.8
20190322191705 57 270 13.0 17.0 0.00 0.00 0.00 51 1009.8
20190322191205 57 270 13.0 17.0 0.00 0.00 0.00 55 1010.2
20190322190205 56 270 13.0 17.0 0.00 0.00 0.00 56 1009.9
20190322185705 55 270 11.0 19.0 0.00 0.00 0.00 56 1010.1
20190322184205 55 270 15.0 21.0 0.00 0.00 0.00 57 1010.2
20190322183705 55 270 15.0 21.0 0.00 0.00 0.00 57 1010.1
20190322183205 54 270 17.0 21.0 0.00 0.00 0.00 57 1010.1
20190322181705 53 270 16.0 20.0 0.00 0.00 0.00 61 1009.9
20190322181205 53 270 14.0 20.0 0.00 0.00 0.00 63 1010.0
20190322180207 52 270 15.0 17.0 0.00 0.00 0.00 64 1010.1
20190322175704 52 270 15.0 17.0 0.00 0.00 0.00 65 1010.0
20190322174705 51 270 15.0 18.0 0.00 0.00 0.00 68 1010.2
20190322171705 49 270 11.0 16.0 0.00 0.00 0.00 75 1009.9
20190322170706 48 270 12.0 17.0 0.00 0.00 0.00 77 1010.0
20190322170205 47 270 14.0 17.0 0.00 0.00 0.00 77 1010.0
20190322165705 47 270 15.0 17.0 0.00 0.00 0.00 78 1009.9
20190322165205 47 270 12.0 17.0 0.00 0.00 0.00 78 1009.9
20190322163705 46 270 13.0 18.0 0.00 0.00 0.00 78 1010.1
20190322163205 46 270 15.0 18.0 0.00 0.00 0.00 79 1010.0
20190322162706 46 270 15.0 18.0 0.00 0.00 0.00 78 1010.2
20190322161705 46 270 17.0 19.0 0.00 0.00 0.00 78 1010.1
20190322160706 46 270 13.0 19.0 0.00 0.00 0.00 81 1010.1
20190322160206 46 270 15.0 19.0 0.00 0.00 0.00 81 1010.1
20190322155205 45 270 15.0 17.0 0.00 0.00 0.00 82 1010.0
20190322154705 45 270 14.0 17.0 0.00 0.00 0.00 82 1009.8
20190322154205 45 270 14.0 17.0 0.00 0.00 0.00 82 1010.0
20190322153205 44 270 12.0 17.0 0.00 0.00 0.00 84 1010.0
20190322152205 44 270 13.0 18.0 0.00 0.00 0.00 85 1009.9
20190322151706 44 270 14.0 17.0 0.00 0.00 0.00 85 1009.9